Location: CCZU
(31.6840°N, 119.9550°E)
Time: 12:33:54
(UTC+08:00)

Hubble Space Telescope - Pass Details

Date: 03 October 2022
Orbit: 530 x 534 km, 28.5° (Epoch: 28 November)

Event Time Altitude Azimuth Distance (km) Brightness Sun altitude
Rises 18:36:29 0° 269° (W) 2,654 6.4 -12.2°
Reaches altitude 10° 18:38:53 10° 260° (W) 1,763 4.8 -12.7°
Maximum altitude 18:42:35 33° 195° (SSW) 887 2.0 -13.5°
Enters shadow 18:45:21 15° 136° (SE) 1,447 2.5 -14.1°
